Content
SEND FEEDBACK

Daily
Averages
Monthly
Summary
United States of America

CHESTERFIELD, MISSOURI


Home > North America > United States > Missouri
Elevation: 170 meters     Latitude: 38 41N     Longitude: 090 31W

WEATHER
 
SELECT A DAY
Number of Records: 203,490;   Date Range: 1/1/95 - 8/12/14
 
SHARE

PRINT THIS DATA

[ ← Previous Day ]
WEATHER ALMANAC - 3 MAY, 2013
[ Next Day → ]
[ °F ]   °C
Weather ElementAverageHighLow
Temperature6.3 °C7.2 °C (12:51 am)5.6 °C (6:51 am)
Dewpoint4.4 °C6 °C (12:40 am)3.3 °C (7:51 am)
Humidity87.8 %93 % (12:40 am)81 % (2:05 am)
Barometer1014.2 hPa1019.3 hPa (12:40 am)1009.8 hPa (8:17 pm)
Wind Speed14.8 km/h22.2 km/h (2:51 pm)
Wind Gust29.6 km/h (9:51 am)
Weather ElementAverage
Visibility7.6 km
Wind DirectionWNW (300.6 °)

Weather ElementTotal
Precipitation106.43 mm
Heating Degree Days11.9 (Base 18.3)
Averaged from 65 records on 3 May, 2013
WEATHER CONDITIONS BREAKOUT
WIND DIRECTION BREAKOUT
WEATHER BY HOUR - 3 MAY, 2013
[ °F ]   °C
Local TimeTemperatureDewpointHumidityBarometerVisibilityWind DirectionWind SpeedGust SpeedPrecipitationEventsConditions
12:40 AM7 °C6 °C93 %1019.3 hPa11.3 kmNW (320°)13 km/h1.02 mmRainLight Rain
12:51 AM7.2 °C5 °C86 %1019 hPa11.3 kmNW (320°)16.7 km/h1.27 mmRainLight Rain
1:06 AM7 °C6 °C93 %1018.6 hPa9.7 kmNNW (330°)14.8 km/h0.76 mmRainLight Rain
1:42 AM7 °C5 °C87 %1018.3 hPa6.4 kmNW (320°)16.7 km/h2.03 mmRainRain
1:51 AM6.7 °C5 °C89 %1017.9 hPa8 kmNW (320°)16.7 km/h3.05 mmRainRain
2:05 AM7 °C4 °C81 %1017.9 hPa8 kmNNW (330°)11.1 km/h0.76 mmRainLight Rain
2:23 AM7 °C5 °C87 %1017.9 hPa8 kmNW (320°)11.1 km/h1.78 mmRainLight Rain
2:35 AM7 °C5 °C87 %1017.6 hPa8 kmWNW (300°)11.1 km/h2.79 mmRainRain
2:51 AM6.7 °C5 °C89 %1016.9 hPa9.7 kmNW (320°)11.1 km/h3.56 mmRainLight Rain
3:44 AM6 °C5 °C93 %1016.9 hPa9.7 kmWNW (300°)11.1 km/h1.78 mmRainLight Rain
3:48 AM6 °C4 °C87 %1016.9 hPa9.7 kmWNW (300°)13 km/h2.03 mmRainRain
3:51 AM6.1 °C4.4 °C89 %1016.9 hPa9.7 kmWNW (300°)13 km/h2.29 mmRainRain
4:24 AM6 °C4 °C87 %1016.9 hPa9.7 kmWNW (300°)14.8 km/h1.02 mmRainLight Rain
4:32 AM6 °C4 °C87 %1016.6 hPa9.7 kmNW (310°)14.8 km/h1.02 mmRainLight Rain
4:51 AM6.1 °C4.4 °C89 %1016.6 hPa11.3 kmWNW (300°)13 km/h1.78 mmRainLight Rain
5:51 AM6.1 °C4.4 °C89 %1016.3 hPa12.9 kmWNW (300°)13 km/h0.25 mmRainLight Rain
6:11 AM6 °C4 °C87 %1016.3 hPa4.8 kmWNW (300°)16.7 km/h0 mmRainLight Rain
6:22 AM6 °C4 °C87 %1015.9 hPa6.4 kmNW (310°)16.7 km/h0.25 mmRainLight Rain
6:38 AM6 °C4 °C87 %1015.9 hPa4.8 kmWNW (300°)14.8 km/h0.25 mmRainLight Rain
6:51 AM5.6 °C3.9 °C89 %1015.9 hPa6.4 kmNW (310°)14.8 km/h0.76 mmRainLight Rain
7:04 AM6 °C4 °C87 %1015.6 hPa9.7 kmWNW (300°)16.7 km/h0.25 mmRainLight Rain
7:47 AM6 °C4 °C87 %1014.9 hPa4.8 kmNW (320°)18.5 km/h1.27 mmRainLight Rain
7:51 AM5.6 °C3.3 °C85 %1015.2 hPa6.4 kmNW (320°)16.7 km/h1.52 mmRainLight Rain
8:47 AM6 °C4 °C87 %1015.2 hPa4.8 kmWNW (290°)18.5 km/h3.05 mmRainLight Rain
8:51 AM5.6 °C3.9 °C89 %1015.9 hPa4.8 kmWNW (290°)16.7 km/h3.56 mmRainLight Rain
9:06 AM6 °C4 °C87 %1014.9 hPa6.4 kmWNW (300°)13 km/h1.27 mmRainLight Rain
9:25 AM6 °C4 °C87 %1014.9 hPa4.8 kmWNW (300°)16.7 km/h2.03 mmRainLight Rain
9:40 AM6 °C4 °C87 %1014.9 hPa6.4 kmNW (310°)16.7 km/h2.29 mmRainLight Rain
9:51 AM5.6 °C3.9 °C89 %1015.2 hPa4.8 kmWNW (300°)18.5 km/h29.6 km/h2.29 mmRainLight Rain
10:18 AM6 °C4 °C87 %1014.6 hPa6.4 kmNW (320°)18.5 km/h0.51 mmRainLight Rain
10:24 AM6 °C4 °C87 %1014.6 hPa9.7 kmWNW (300°)18.5 km/h0.51 mmRainLight Rain
10:47 AM6 °C4 °C87 %1014.6 hPa6.4 kmWNW (300°)14.8 km/h0.76 mmRainLight Rain
10:51 AM5.6 °C3.9 °C89 %1014.9 hPa4.8 kmNW (310°)14.8 km/h1.52 mmRainLight Rain
11:09 AM6 °C4 °C87 %1014.2 hPa6.4 kmNW (310°)16.7 km/h1.27 mmRainLight Rain
11:24 AM6 °C4 °C87 %1014.2 hPa6.4 kmNW (310°)14.8 km/h1.52 mmRainLight Rain
11:38 AM6 °C4 °C87 %1013.5 hPa4 kmNW (310°)16.7 km/h2.79 mmRainLight Rain
11:51 AM5.6 °C3.9 °C89 %1014.2 hPa6.4 kmNW (310°)11.1 km/h3.81 mmRainLight Rain
12:03 PM6 °C4 °C87 %1013.9 hPa8 kmWNW (300°)9.3 km/h0.51 mmRainLight Rain
12:44 PM6 °C4 °C87 %1012.9 hPa11.3 kmNW (320°)14.8 km/h0.76 mmRainLight Rain
12:51 PM6.1 °C4.4 °C89 %1013.2 hPa11.3 kmNNW (330°)11.1 km/h0.76 mmRainLight Rain
1:19 PM7 °C5 °C87 %1012.5 hPa6.4 kmNW (310°)11.1 km/h0.51 mmRainLight Rain
1:51 PM6.7 °C5 °C89 %1012.9 hPa6.4 kmNW (310°)13 km/h1.78 mmRainLight Rain
2:16 PM7 °C5 °C87 %1012.2 hPa8 kmNW (310°)13 km/h1.27 mmRainLight Rain
2:51 PM6.7 °C5 °C89 %1012.9 hPa9.7 kmWest (280°)22.2 km/h2.29 mmRainLight Rain
3:10 PM7 °C5 °C87 %1011.9 hPa6.4 kmWest (280°)22.2 km/h0.76 mmRainLight Rain
3:37 PM6 °C4 °C87 %1011.2 hPa8 kmWNW (300°)14.8 km/h1.78 mmRainLight Rain
3:51 PM6.7 °C5 °C89 %1011.5 hPa8 kmWNW (300°)11.1 km/h2.03 mmRainLight Rain
4:02 PM7 °C5 °C87 %1011.2 hPa4.8 kmWNW (300°)13 km/h0.76 mmRainRain
4:23 PM7 °C5 °C87 %1010.8 hPa8 kmNW (310°)18.5 km/h2.54 mmRainLight Rain
4:45 PM7 °C5 °C87 %1010.5 hPa6.4 kmNW (310°)14.8 km/h3.3 mmRainRain
4:51 PM6.7 °C5 °C89 %1011.2 hPa6.4 kmNW (310°)9.3 km/h4.06 mmRainRain
5:39 PM7 °C5 °C87 %1010.5 hPa6.4 kmNW (310°)13 km/h2.54 mmRainLight Rain
5:51 PM6.7 °C5 °C89 %1010.8 hPa8 kmWNW (290°)16.7 km/h2.79 mmRainLight Rain
6:14 PM7 °C5 °C87 %1010.8 hPa6.4 kmWest (270°)20.4 km/h0.25 mmRainLight Rain
6:26 PM6 °C4 °C87 %1010.5 hPa4.8 kmWest (270°)18.5 km/h1.02 mmRainLight Rain
6:51 PM6.1 °C4.4 °C89 %1010.8 hPa4.8 kmWest (280°)20.4 km/h6.1 mmRainHeavy Rain
7:05 PM6 °C4 °C87 %1010.5 hPa8 kmWNW (290°)11.1 km/h1.52 mmRainLight Rain
7:51 PM6.1 °C4.4 °C89 %1011.2 hPa6.4 kmWNW (300°)13 km/h2.29 mmRainLight Rain
8:17 PM6 °C4 °C87 %1009.8 hPa9.7 kmWNW (300°)11.1 km/h1.27 mmRainLight Rain
8:38 PM6 °C4 °C87 %1009.8 hPa8 kmWNW (290°)18.5 km/h2.03 mmRainLight Rain
8:51 PM6.1 °C4.4 °C89 %1010.5 hPa8 kmWNW (300°)11.1 km/h2.29 mmRainLight Rain
9:40 PM6 °C4 °C87 %1010.5 hPa8 kmWSW (250°)14.8 km/h0.51 mmRainLight Rain
9:51 PM6.1 °C4.4 °C89 %1011.5 hPa8 kmWSW (240°)14.8 km/h0.76 mmRainLight Rain
10:51 PM6.1 °C4.4 °C89 %1011.2 hPa9.7 kmWSW (240°)14.8 km/h1.02 mmRainLight Rain
11:51 PM5.6 °C3.9 °C89 %1011.5 hPa11.3 kmSW (230°)11.1 km/h0.25 mmOvercast
Hourly data recorded from KSTL, located 0 kilometers away from Chesterfield, Missouri







STORIES FROM OUR PARTNERS